This demonstration page uses our WeatherBlox Daily Observations layout. Learn more.

Left ArrowRight Arrow

41.86663, -103.66717

Hourly Observations for January 26, 2021

Temp ( °F °C ) Dew Point ( °F °C ) Humidity (%) Winds ( mph kmh ) Pressure ( in mb ) Visibility ( mi km ) Precip ( " mm )
12:30 am 00:30 Cloudy with Light Snow 19 -7 14 -10 79 79 E 7 11 30.09 1019 4 6 0.00 0.00
12:53 am 00:53 Cloudy with Light Snow 20 -6.7 13 -10.6 74 74 ENE 7 11 29.97 1015 5 8 0.01 0.25
1:06 am 01:06 Cloudy with Light Snow 19 -7 12 -11 73 73 ENE 9 15 30.09 1019 5 8 0.00 0.00
1:53 am 01:53 Cloudy with Light Snow 18 -7.8 12 -11.1 77 77 E 7 11 29.99 1016 6 10 0.00 0.00
2:53 am 02:53 Cloudy with Light Snow 18 -7.8 11 -11.7 74 74 E 9 15 29.99 1016 4 6 0.00 0.00
3:53 am 03:53 Cloudy with Haze 17 -8.3 12 -11.1 80 80 SE 5 7 30.00 1016 6 10 0.00 0.00
4:51 am 04:51 Cloudy 16 -9 10 -12 79 79 SE 5 7 30.13 1020 8 13 0.00 0.00
4:53 am 04:53 Cloudy 16 -8.9 11 -11.7 80 80 SE 6 9 30.00 1016 8 13 0.00 0.00
5:53 am 05:53 Cloudy 12 -11.1 7 -13.9 80 80 E 5 7 30.02 1017 8 13 0.00 0.00
6:09 am 06:09 Cloudy 11 -11.7 7 -13.9 84 84 ESE 3 6 30.19 1022 9 14 0.00 0.00
6:53 am 06:53 Cloudy 15 -9.4 10 -12.2 80 80 SE 6 9 30.03 1017 10 16 0.00 0.00
7:53 am 07:53 Cloudy 15 -9.4 10 -12.2 80 80 ESE 9 15 30.04 1017 10 16 0.00 0.00
8:43 am 08:43 Cloudy 15 -9.4 9 -12.8 77 77 E 8 13 30.17 1022 10 16 0.00 0.00
8:51 am 08:51 Cloudy 16 -9 10 -12 79 79 ESE 9 15 30.17 1022 10 16 0.00 0.00
8:53 am 08:53 Cloudy 15 -9.4 10 -12.2 80 80 ESE 9 15 30.06 1018 10 16 0.00 0.00
9:36 am 09:36 Cloudy 16 -8.9 10 -12.2 77 77 E 9 15 30.18 1022 8 13 0.00 0.00
9:53 am 09:53 Cloudy 16 -8.9 11 -11.7 80 80 E 12 19 30.06 1018 7 11 0.00 0.00
10:53 am 10:53 Cloudy with Haze 17 -8.3 11 -11.7 77 77 ESE 10 17 30.06 1018 5 8 0.00 0.00
11:05 am 11:05 Cloudy with Haze 17 -8.3 11 -11.7 77 77 ESE 12 19 30.17 1022 5 8 0.00 0.00
11:53 am 11:53 Cloudy 18 -7.8 12 -11.1 77 77 ESE 14 22 30.05 1018 7 11 0.00 0.00
12:53 pm 12:53 Cloudy with Light Snow 19 -7.2 13 -10.6 77 77 ESE 15 24 30.02 1017 3 5 0.00 0.00
1:53 pm 13:53 Cloudy with Light Snow 20 -6.7 13 -10.6 74 74 ESE 14 22 30.03 1017 5 8 0.00 0.00
2:27 pm 14:27 Cloudy with Light Snow 20 -6.7 14 -10 78 78 ESE 14 22 30.11 1020 3 5 0.00 0.00
2:53 pm 14:53 Cloudy with Light Snow 20 -6.7 14 -10 78 78 ESE 13 20 30.05 1018 4 6 0.00 0.00
3:53 pm 15:53 Cloudy with Haze 20 -6.7 14 -10 78 78 ESE 13 20 30.05 1018 6 10 0.00 0.00
4:53 pm 16:53 Cloudy 20 -6.7 14 -10 78 78 ESE 12 19 30.07 1018 9 14 0.00 0.00
5:53 pm 17:53 Cloudy 19 -7.2 14 -10 81 81 ESE 12 19 30.10 1019 10 16 0.00 0.00
6:19 pm 18:19 Partly Cloudy 17 -8.3 12 -11.1 80 80 ESE 9 15 30.19 1022 10 16 0.00 0.00
6:53 pm 18:53 Mostly Clear 15 -9.4 11 -11.7 84 84 ESE 9 15 30.12 1020 10 16 0.00 0.00
7:53 pm 19:53 Clear 14 -10 10 -12.2 84 84 ESE 10 17 30.14 1021 10 16 0.00 0.00
8:53 pm 20:53 Clear 13 -10.6 9 -12.8 84 84 ESE 10 17 30.15 1021 10 16 0.00 0.00
9:53 pm 21:53 Clear 12 -11.1 8 -13.3 84 84 ESE 12 19 30.16 1021 10 16 0.00 0.00
10:53 pm 22:53 Clear 11 -11.7 7 -13.9 84 84 ESE 12 19 30.18 1022 10 16 0.00 0.00
11:53 pm 23:53 Clear 10 -12.2 6 -14.4 84 84 ESE 10 17 30.20 1023 10 16 0.00 0.00

Powered by AerisWeather